TimeCST,TemperatureF,Dew PointF,Humidity,Sea Level PressureIn,VisibilityMPH,Wind Direction,Wind SpeedMPH,Gust SpeedMPH,PrecipitationIn,Events,Conditions,WindDirDegrees,DateUTC
12:53 AM,45.0,27.0,49,30.18,10.0,SW,5.8,-,N/A,,Clear,220,2013-12-01 06:53:00
1:53 AM,44.1,27.0,51,30.17,10.0,SW,6.9,-,N/A,,Clear,220,2013-12-01 07:53:00
2:53 AM,44.1,28.0,53,30.16,10.0,SSW,6.9,-,N/A,,Clear,210,2013-12-01 08:53:00
3:53 AM,43.0,28.0,56,30.14,10.0,SW,5.8,-,N/A,,Clear,220,2013-12-01 09:53:00
4:53 AM,45.0,30.0,56,30.14,10.0,SW,6.9,-,N/A,,Overcast,220,2013-12-01 10:53:00
5:53 AM,46.0,30.9,56,30.14,10.0,SW,5.8,-,N/A,,Overcast,220,2013-12-01 11:53:00
6:53 AM,46.9,32.0,56,30.15,10.0,SW,5.8,-,N/A,,Overcast,230,2013-12-01 12:53:00
7:53 AM,46.9,32.0,56,30.15,10.0,SW,5.8,-,N/A,,Overcast,220,2013-12-01 13:53:00
8:53 AM,48.9,33.1,54,30.15,10.0,SW,5.8,-,N/A,,Overcast,220,2013-12-01 14:53:00
9:53 AM,51.1,34.0,52,30.14,10.0,WSW,8.1,-,N/A,,Overcast,240,2013-12-01 15:53:00
10:53 AM,53.1,35.1,50,30.13,10.0,WSW,6.9,-,N/A,,Overcast,240,2013-12-01 16:53:00
11:53 AM,55.0,37.0,51,30.09,10.0,Variable,3.5,-,N/A,,Overcast,0,2013-12-01 17:53:00
12:53 PM,57.0,37.9,49,30.05,10.0,SSW,3.5,-,N/A,,Mostly Cloudy,210,2013-12-01 18:53:00
1:53 PM,57.0,37.9,49,30.03,10.0,South,5.8,-,N/A,,Scattered Clouds,190,2013-12-01 19:53:00
2:53 PM,57.0,39.0,51,30.01,10.0,South,4.6,-,N/A,,Overcast,180,2013-12-01 20:53:00
3:53 PM,55.0,37.9,53,30.00,10.0,South,5.8,-,N/A,,Scattered Clouds,170,2013-12-01 21:53:00
4:53 PM,52.0,37.9,59,29.99,10.0,South,3.5,-,N/A,,Overcast,190,2013-12-01 22:53:00
5:53 PM,48.9,37.0,64,30.00,10.0,Calm,Calm,-,N/A,,Overcast,0,2013-12-01 23:53:00
6:53 PM,46.9,37.0,68,29.99,10.0,SE,3.5,-,N/A,,Mostly Cloudy,140,2013-12-02 00:53:00
7:53 PM,42.1,36.0,79,29.98,10.0,Calm,Calm,-,N/A,,Clear,0,2013-12-02 01:53:00
8:53 PM,44.1,37.0,76,29.97,10.0,Calm,Calm,-,N/A,,Clear,0,2013-12-02 02:53:00
9:53 PM,37.9,34.0,86,29.96,7.0,Calm,Calm,-,N/A,,Partly Cloudy,0,2013-12-02 03:53:00
10:53 PM,39.0,35.1,86,29.95,5.0,Calm,Calm,-,N/A,,Partly Cloudy,0,2013-12-02 04:53:00
11:53 PM,39.0,35.1,86,29.92,7.0,Calm,Calm,-,N/A,,Mostly Cloudy,0,2013-12-02 05:53:00